Вернуться в каталог

DB-PRECISIONFLIGHTWORKSP

АктивенНаукаSSO
NORAD 68466·PAYLOAD·🇬🇧 United Kingdom

Запущен Mar 30, 2026 с Vandenberg Space Force Base

Loading…

Ближайшие Пролёты (ближайшие 24 часа)

TLE

СвежийSource: Space-Track

Эпоха: Sep 14, 2026, 07:17 UTC

1 68466U 26067BC  26257.30358786  .00005897  00000-0  28783-3 0  9993
2 68466  97.4584 214.2660 0007570 120.5870 239.6112 15.18636193 25309

Отслеживайте DB-PRECISIONFLIGHTWORKSP в реальном времени с AllMySat

Download on the App Store